Location: Devore Heights
(34.2372°N, 117.4156°W)
Time: 19:04:50
(UTC+00:00)

deb Explorer IX - Pass Details

Date: 13 September 2024
Orbit: 502 x 816 km, 38.7° (Epoch: 15 October)

Event Time Altitude Azimuth Distance (km) Brightness Sun altitude
Rises 11:25:06 0° 273° (W) 3,073 - -26.1°
Reaches altitude 10° 11:29:43 10° 235° (SW) 2,036 - -25.2°
Maximum altitude 11:30:39 11° 224° (SW) 1,977 - -25.1°
Drops below altitude 10° 11:31:34 10° 212° (SSW) 1,988 - -24.9°
Sets 11:35:48 0° 172° (S) 2,781 - -24.1°
